Time,TemperatureF,DewpointF,PressureIn,WindDirection,WindDirectionDegrees,WindSpeedMPH,WindSpeedGustMPH,Humidity,HourlyPrecipIn,Conditions,Clouds,dailyrainin,SolarRadiationWatts/m^2,SoftwareType,DateUTC
2013-09-07 00:01:00,74.0,65.2,29.63,South,187,6.0,10.0,74,0.00,,,0.00,0,Wunderground v.1.15,2013-09-07 05:01:00,
2013-09-07 00:06:00,73.8,65.4,29.63,SSW,196,7.0,10.0,75,0.00,,,0.00,0,Wunderground v.1.15,2013-09-07 05:06:00,
2013-09-07 00:11:00,73.9,65.1,29.63,South,190,6.0,9.0,74,0.00,,,0.00,0,Wunderground v.1.15,2013-09-07 05:11:00,
2013-09-07 00:16:00,73.7,65.3,29.63,South,190,9.0,10.0,75,0.00,,,0.00,0,Wunderground v.1.15,2013-09-07 05:16:00,
2013-09-07 00:21:00,73.7,65.3,29.63,South,188,9.0,10.0,75,0.00,,,0.00,0,Wunderground v.1.15,2013-09-07 05:21:00,
2013-09-07 00:26:00,73.5,65.1,29.63,South,188,10.0,11.0,75,0.00,,,0.00,0,Wunderground v.1.15,2013-09-07 05:26:00,
2013-09-07 00:31:00,73.2,64.8,29.63,South,190,6.0,11.0,75,0.00,,,0.00,0,Wunderground v.1.15,2013-09-07 05:31:00,
2013-09-07 00:36:00,73.2,64.8,29.63,SSW,192,8.0,12.0,75,0.00,,,0.00,0,Wunderground v.1.15,2013-09-07 05:36:00,
2013-09-07 00:41:00,73.3,64.9,29.63,South,186,7.0,9.0,75,0.00,,,0.00,0,Wunderground v.1.15,2013-09-07 05:41:00,
2013-09-07 00:46:00,73.1,64.7,29.63,South,186,8.0,10.0,75,0.00,,,0.00,0,Wunderground v.1.15,2013-09-07 05:46:00,
2013-09-07 00:51:00,72.9,64.5,29.63,SSW,192,7.0,11.0,75,0.00,,,0.00,0,Wunderground v.1.15,2013-09-07 05:51:00,
2013-09-07 00:56:00,72.9,64.5,29.63,South,188,9.0,11.0,75,0.00,,,0.00,0,Wunderground v.1.15,2013-09-07 05:56:00,
2013-09-07 01:01:00,72.6,64.6,29.63,South,186,8.0,9.0,76,0.00,,,0.00,0,Wunderground v.1.15,2013-09-07 06:01:00,
2013-09-07 01:06:00,72.5,64.5,29.63,South,184,6.0,11.0,76,0.00,,,0.00,0,Wunderground v.1.15,2013-09-07 06:06:00,
2013-09-07 01:11:00,72.4,64.4,29.63,South,189,7.0,9.0,76,0.00,,,0.00,0,Wunderground v.1.15,2013-09-07 06:11:00,
2013-09-07 01:16:00,72.2,64.2,29.64,South,187,6.0,11.0,76,0.00,,,0.00,0,Wunderground v.1.15,2013-09-07 06:16:00,
2013-09-07 01:21:00,72.2,64.2,29.63,South,189,8.0,12.0,76,0.00,,,0.00,0,Wunderground v.1.15,2013-09-07 06:21:00,
2013-09-07 01:26:00,72.0,64.0,29.63,South,187,10.0,12.0,76,0.00,,,0.00,0,Wunderground v.1.15,2013-09-07 06:26:00,
2013-09-07 01:31:00,71.8,63.8,29.63,South,187,7.0,10.0,76,0.00,,,0.00,0,Wunderground v.1.15,2013-09-07 06:31:00,
2013-09-07 01:36:00,71.7,63.7,29.63,South,189,8.0,10.0,76,0.00,,,0.00,0,Wunderground v.1.15,2013-09-07 06:36:00,
2013-09-07 01:41:00,71.6,63.6,29.64,South,189,7.0,8.0,76,0.00,,,0.00,0,Wunderground v.1.15,2013-09-07 06:41:00,
2013-09-07 01:46:00,71.5,63.5,29.63,South,190,10.0,11.0,76,0.00,,,0.00,0,Wunderground v.1.15,2013-09-07 06:46:00,
2013-09-07 01:51:00,71.3,63.3,29.63,South,188,8.0,11.0,76,0.00,,,0.00,0,Wunderground v.1.15,2013-09-07 06:51:00,
2013-09-07 01:56:00,71.2,63.2,29.64,South,188,6.0,11.0,76,0.00,,,0.00,0,Wunderground v.1.15,2013-09-07 06:56:00,
2013-09-07 02:01:00,70.9,63.3,29.64,South,188,8.0,9.0,77,0.00,,,0.00,0,Wunderground v.1.15,2013-09-07 07:01:00,
2013-09-07 02:06:00,70.9,63.3,29.64,South,186,8.0,9.0,77,0.00,,,0.00,0,Wunderground v.1.15,2013-09-07 07:06:00,
2013-09-07 02:11:00,70.8,63.2,29.63,South,184,7.0,9.0,77,0.00,,,0.00,0,Wunderground v.1.15,2013-09-07 07:11:00,
2013-09-07 02:16:00,70.6,63.0,29.64,South,186,9.0,9.0,77,0.00,,,0.00,0,Wunderground v.1.15,2013-09-07 07:16:00,
2013-09-07 02:21:00,70.5,62.6,29.63,South,186,6.0,8.0,76,0.00,,,0.00,0,Wunderground v.1.15,2013-09-07 07:21:00,
2013-09-07 02:26:00,70.4,62.5,29.64,South,187,9.0,9.0,76,0.00,,,0.00,0,Wunderground v.1.15,2013-09-07 07:26:00,
2013-09-07 02:31:00,70.4,62.5,29.63,South,184,6.0,8.0,76,0.00,,,0.00,0,Wunderground v.1.15,2013-09-07 07:31:00,
2013-09-07 02:36:00,70.6,62.3,29.63,South,187,5.0,11.0,75,0.00,,,0.00,0,Wunderground v.1.15,2013-09-07 07:36:00,
2013-09-07 02:41:00,70.5,62.2,29.63,South,187,7.0,7.0,75,0.00,,,0.00,0,Wunderground v.1.15,2013-09-07 07:41:00,
2013-09-07 02:46:00,70.4,61.7,29.63,South,188,7.0,10.0,74,0.00,,,0.00,0,Wunderground v.1.15,2013-09-07 07:46:00,
2013-09-07 02:51:00,70.4,61.3,29.62,South,188,5.0,8.0,73,0.00,,,0.00,0,Wunderground v.1.15,2013-09-07 07:51:00,
2013-09-07 02:56:00,70.3,61.2,29.62,South,188,7.0,9.0,73,0.00,,,0.00,0,Wunderground v.1.15,2013-09-07 07:56:00,
2013-09-07 03:01:00,70.9,61.0,29.62,SSW,193,6.0,8.0,71,0.00,,,0.00,0,Wunderground v.1.15,2013-09-07 08:01:00,
2013-09-07 03:06:00,71.9,60.3,29.62,South,186,6.0,9.0,67,0.00,,,0.00,0,Wunderground v.1.15,2013-09-07 08:06:00,
2013-09-07 03:11:00,72.8,59.9,29.62,SSW,196,7.0,11.0,64,0.00,,,0.00,0,Wunderground v.1.15,2013-09-07 08:11:00,
2013-09-07 03:16:00,73.4,60.0,29.62,South,191,8.0,11.0,63,0.00,,,0.00,0,Wunderground v.1.15,2013-09-07 08:16:00,
2013-09-07 03:21:00,73.4,59.6,29.62,SSW,200,6.0,8.0,62,0.00,,,0.00,0,Wunderground v.1.15,2013-09-07 08:21:00,
2013-09-07 03:26:00,73.6,59.3,29.62,SSW,208,2.0,10.0,61,0.00,,,0.00,0,Wunderground v.1.15,2013-09-07 08:26:00,
2013-09-07 03:31:00,73.6,59.3,29.62,SSW,199,4.0,6.0,61,0.00,,,0.00,0,Wunderground v.1.15,2013-09-07 08:31:00,
2013-09-07 03:36:00,73.4,59.1,29.62,SW,224,5.0,7.0,61,0.00,,,0.00,0,Wunderground v.1.15,2013-09-07 08:36:00,
2013-09-07 03:41:00,72.7,59.4,29.62,SW,230,5.0,7.0,63,0.00,,,0.00,0,Wunderground v.1.15,2013-09-07 08:41:00,
2013-09-07 03:46:00,72.3,59.0,29.62,SW,228,3.0,7.0,63,0.00,,,0.00,0,Wunderground v.1.15,2013-09-07 08:46:00,
2013-09-07 03:51:00,71.7,59.3,29.62,SW,227,3.0,4.0,65,0.00,,,0.00,0,Wunderground v.1.15,2013-09-07 08:51:00,
2013-09-07 03:56:00,71.0,59.1,29.62,SW,227,2.0,4.0,66,0.00,,,0.00,0,Wunderground v.1.15,2013-09-07 08:56:00,
2013-09-07 04:01:00,70.0,59.4,29.62,SW,225,3.0,6.0,69,0.00,,,0.00,0,Wunderground v.1.15,2013-09-07 09:01:00,
2013-09-07 04:06:00,69.5,58.9,29.62,SW,224,3.0,6.0,69,0.00,,,0.00,0,Wunderground v.1.15,2013-09-07 09:06:00,
2013-09-07 04:11:00,68.8,59.0,29.62,SW,220,4.0,4.0,71,0.00,,,0.00,0,Wunderground v.1.15,2013-09-07 09:11:00,
2013-09-07 04:16:00,68.3,58.9,29.62,SSW,205,3.0,7.0,72,0.00,,,0.00,0,Wunderground v.1.15,2013-09-07 09:16:00,
2013-09-07 04:21:00,68.1,58.7,29.62,SSW,205,4.0,4.0,72,0.00,,,0.00,0,Wunderground v.1.15,2013-09-07 09:21:00,
2013-09-07 04:26:00,68.2,58.8,29.63,SSW,205,3.0,6.0,72,0.00,,,0.00,0,Wunderground v.1.15,2013-09-07 09:26:00,
2013-09-07 04:31:00,68.1,58.7,29.63,SW,219,2.0,4.0,72,0.00,,,0.00,0,Wunderground v.1.15,2013-09-07 09:31:00,
2013-09-07 04:36:00,67.7,58.7,29.62,SW,214,4.0,7.0,73,0.00,,,0.00,0,Wunderground v.1.15,2013-09-07 09:36:00,
2013-09-07 04:41:00,67.4,58.4,29.63,SW,221,3.0,5.0,73,0.00,,,0.00,0,Wunderground v.1.15,2013-09-07 09:41:00,
2013-09-07 04:46:00,67.6,58.2,29.63,SW,221,0.0,6.0,72,0.00,,,0.00,0,Wunderground v.1.15,2013-09-07 09:46:00,
2013-09-07 04:51:00,67.6,58.2,29.63,SW,221,2.0,3.0,72,0.00,,,0.00,0,Wunderground v.1.15,2013-09-07 09:51:00,
2013-09-07 04:56:00,67.1,58.2,29.64,SW,221,1.0,5.0,73,0.00,,,0.00,0,Wunderground v.1.15,2013-09-07 09:56:00,
2013-09-07 05:01:00,66.7,58.1,29.63,SW,221,0.0,2.0,74,0.00,,,0.00,0,Wunderground v.1.15,2013-09-07 10:01:00,
2013-09-07 05:06:00,66.5,58.0,29.64,SW,221,0.0,2.0,74,0.00,,,0.00,0,Wunderground v.1.15,2013-09-07 10:06:00,
2013-09-07 05:11:00,66.2,58.0,29.63,SW,221,0.0,0.0,75,0.00,,,0.00,0,Wunderground v.1.15,2013-09-07 10:11:00,
2013-09-07 05:16:00,65.8,58.0,29.64,SW,221,2.0,3.0,76,0.00,,,0.00,0,Wunderground v.1.15,2013-09-07 10:16:00,
2013-09-07 05:21:00,65.5,58.1,29.65,SW,221,3.0,4.0,77,0.00,,,0.00,0,Wunderground v.1.15,2013-09-07 10:21:00,
2013-09-07 05:26:00,65.6,58.6,29.64,SW,222,0.0,4.0,78,0.00,,,0.00,0,Wunderground v.1.15,2013-09-07 10:26:00,
2013-09-07 05:31:00,66.1,59.0,29.64,NW,320,1.0,4.0,78,0.00,,,0.00,0,Wunderground v.1.15,2013-09-07 10:31:00,
2013-09-07 05:36:00,66.7,59.6,29.65,NW,312,1.0,7.0,78,0.00,,,0.00,0,Wunderground v.1.15,2013-09-07 10:36:00,
2013-09-07 05:41:00,67.3,60.6,29.64,NNW,332,5.0,7.0,79,0.00,,,0.00,0,Wunderground v.1.15,2013-09-07 10:41:00,
2013-09-07 05:46:00,67.9,61.5,29.65,NNW,336,2.0,7.0,80,0.00,,,0.00,0,Wunderground v.1.15,2013-09-07 10:46:00,
2013-09-07 05:51:00,68.7,63.0,29.65,NNW,335,6.0,8.0,82,0.00,,,0.00,0,Wunderground v.1.15,2013-09-07 10:51:00,
2013-09-07 05:56:00,69.2,63.8,29.65,North,355,7.0,9.0,83,0.00,,,0.00,0,Wunderground v.1.15,2013-09-07 10:56:00,
2013-09-07 06:01:00,69.7,64.3,29.64,NNE,30,9.0,16.0,83,0.00,,,0.00,0,Wunderground v.1.15,2013-09-07 11:01:00,
2013-09-07 06:06:00,70.3,64.9,29.65,NNE,12,7.0,16.0,83,0.00,,,0.00,0,Wunderground v.1.15,2013-09-07 11:06:00,
2013-09-07 06:11:00,70.7,65.3,29.64,North,360,7.0,9.0,83,0.00,,,0.00,0,Wunderground v.1.15,2013-09-07 11:11:00,
2013-09-07 06:16:00,71.1,65.7,29.65,North,355,3.0,9.0,83,0.00,,,0.00,0,Wunderground v.1.15,2013-09-07 11:16:00,
2013-09-07 06:21:00,71.3,65.9,29.66,NNW,327,3.0,5.0,83,0.00,,,0.00,0,Wunderground v.1.15,2013-09-07 11:21:00,
2013-09-07 06:26:00,71.6,66.5,29.66,North,360,8.0,12.0,84,0.00,,,0.00,0,Wunderground v.1.15,2013-09-07 11:26:00,
2013-09-07 06:31:00,71.9,66.5,29.66,North,5,2.0,9.0,83,0.00,,,0.00,0,Wunderground v.1.15,2013-09-07 11:31:00,
2013-09-07 06:36:00,71.9,66.5,29.65,North,355,4.0,9.0,83,0.00,,,0.00,0,Wunderground v.1.15,2013-09-07 11:36:00,
2013-09-07 06:41:00,72.0,66.6,29.65,NNE,14,3.0,5.0,83,0.00,,,0.00,0,Wunderground v.1.15,2013-09-07 11:41:00,
2013-09-07 06:46:00,72.1,66.6,29.66,North,5,2.0,5.0,83,0.00,,,0.00,0,Wunderground v.1.15,2013-09-07 11:46:00,
2013-09-07 06:51:00,72.1,66.6,29.65,North,11,3.0,3.0,83,0.00,,,0.00,0,Wunderground v.1.15,2013-09-07 11:51:00,
2013-09-07 06:56:00,72.1,67.0,29.65,North,360,7.0,9.0,84,0.00,,,0.00,0,Wunderground v.1.15,2013-09-07 11:56:00,
2013-09-07 07:01:00,72.1,67.0,29.65,North,355,6.0,7.0,84,0.00,,,0.00,5,Wunderground v.1.15,2013-09-07 12:01:00,
2013-09-07 07:06:00,72.1,67.0,29.65,North,355,4.0,7.0,84,0.00,,,0.00,5,Wunderground v.1.15,2013-09-07 12:06:00,
2013-09-07 07:11:00,72.1,67.0,29.65,NNE,17,3.0,7.0,84,0.00,,,0.00,7,Wunderground v.1.15,2013-09-07 12:11:00,
2013-09-07 07:16:00,72.3,67.5,29.65,NNE,30,5.0,9.0,85,0.00,,,0.00,14,Wunderground v.1.15,2013-09-07 12:16:00,
2013-09-07 07:21:00,72.3,67.2,29.65,NNE,32,6.0,6.0,84,0.00,,,0.00,21,Wunderground v.1.15,2013-09-07 12:21:00,
2013-09-07 07:26:00,72.3,67.5,29.65,NNE,18,4.0,7.0,85,0.00,,,0.00,30,Wunderground v.1.15,2013-09-07 12:26:00,
2013-09-07 07:31:00,72.3,67.5,29.65,NNE,17,2.0,3.0,85,0.00,,,0.00,40,Wunderground v.1.15,2013-09-07 12:31:00,
2013-09-07 07:36:00,72.4,67.6,29.66,North,5,1.0,6.0,85,0.00,,,0.00,53,Wunderground v.1.15,2013-09-07 12:36:00,
2013-09-07 07:41:00,72.6,67.8,29.66,North,5,0.0,2.0,85,0.00,,,0.00,47,Wunderground v.1.15,2013-09-07 12:41:00,
2013-09-07 07:46:00,72.8,67.7,29.66,North,5,1.0,2.0,84,0.00,,,0.00,54,Wunderground v.1.15,2013-09-07 12:46:00,
2013-09-07 07:50:00,72.8,68.0,29.66,North,5,1.0,2.0,85,0.00,,,0.00,54,Wunderground v.1.15,2013-09-07 12:50:00,
2013-09-07 07:55:00,72.9,68.1,29.66,North,5,0.0,2.0,85,0.00,,,0.00,56,Wunderground v.1.15,2013-09-07 12:55:00,
2013-09-07 08:00:00,73.2,68.4,29.66,North,5,0.0,0.0,85,0.00,,,0.00,58,Wunderground v.1.15,2013-09-07 13:00:00,
2013-09-07 08:05:00,73.4,68.6,29.66,North,5,1.0,3.0,85,0.00,,,0.00,47,Wunderground v.1.15,2013-09-07 13:05:00,
2013-09-07 08:10:00,73.2,68.4,29.66,North,5,2.0,3.0,85,0.00,,,0.00,42,Wunderground v.1.15,2013-09-07 13:10:00,
2013-09-07 08:15:00,73.1,68.3,29.65,North,5,2.0,5.0,85,0.00,,,0.00,39,Wunderground v.1.15,2013-09-07 13:15:00,
2013-09-07 08:20:00,73.2,68.4,29.66,NNE,29,2.0,3.0,85,0.00,,,0.00,35,Wunderground v.1.15,2013-09-07 13:20:00,
2013-09-07 08:25:00,73.3,68.5,29.67,NNE,15,1.0,5.0,85,0.00,,,0.00,37,Wunderground v.1.15,2013-09-07 13:25:00,
2013-09-07 08:30:00,73.3,68.2,29.68,North,5,1.0,2.0,84,0.00,,,0.00,39,Wunderground v.1.15,2013-09-07 13:30:00,
2013-09-07 08:35:00,73.4,68.3,29.68,North,5,2.0,5.0,84,0.00,,,0.00,44,Wunderground v.1.15,2013-09-07 13:35:00,
2013-09-07 08:40:00,73.6,68.1,29.69,North,349,2.0,5.0,83,0.00,,,0.00,54,Wunderground v.1.15,2013-09-07 13:40:00,
2013-09-07 08:45:00,73.8,68.3,29.68,NNE,23,5.0,9.0,83,0.00,,,0.00,69,Wunderground v.1.15,2013-09-07 13:45:00,
2013-09-07 08:50:00,74.1,68.3,29.68,NNE,23,5.0,5.0,82,0.00,,,0.00,76,Wunderground v.1.15,2013-09-07 13:50:00,
2013-09-07 08:55:00,74.2,68.3,29.68,North,5,4.0,9.0,82,0.00,,,0.00,84,Wunderground v.1.15,2013-09-07 13:55:00,
2013-09-07 09:00:00,74.2,68.3,29.68,North,351,4.0,5.0,82,0.00,,,0.00,97,Wunderground v.1.15,2013-09-07 14:00:00,
2013-09-07 09:05:00,74.3,68.4,29.69,North,350,2.0,5.0,82,0.00,,,0.00,120,Wunderground v.1.15,2013-09-07 14:05:00,
2013-09-07 09:10:00,74.3,68.4,29.69,North,350,2.0,4.0,82,0.00,,,0.00,167,Wunderground v.1.15,2013-09-07 14:10:00,
2013-09-07 09:15:00,74.5,68.6,29.69,NNE,24,6.0,7.0,82,0.00,,,0.00,174,Wunderground v.1.15,2013-09-07 14:15:00,
2013-09-07 09:20:00,74.6,68.7,29.69,NNE,32,0.0,4.0,82,0.00,,,0.00,250,Wunderground v.1.15,2013-09-07 14:20:00,
2013-09-07 09:25:00,74.9,69.0,29.70,NNE,32,1.0,4.0,82,0.00,,,0.00,111,Wunderground v.1.15,2013-09-07 14:25:00,
2013-09-07 09:30:00,75.2,69.3,29.70,NNE,32,0.0,0.0,82,0.00,,,0.00,84,Wunderground v.1.15,2013-09-07 14:30:00,
2013-09-07 09:35:00,75.1,69.2,29.70,NNE,32,2.0,4.0,82,0.00,,,0.00,79,Wunderground v.1.15,2013-09-07 14:35:00,
2013-09-07 09:40:00,74.7,69.5,29.70,NNE,32,2.0,3.0,84,0.00,,,0.00,91,Wunderground v.1.15,2013-09-07 14:40:00,
2013-09-07 09:45:00,74.6,69.4,29.71,NNE,32,0.0,3.0,84,0.00,,,0.00,118,Wunderground v.1.15,2013-09-07 14:45:00,
2013-09-07 09:50:00,74.6,69.8,29.70,NNE,32,3.0,4.0,85,0.00,,,0.00,156,Wunderground v.1.15,2013-09-07 14:50:00,
2013-09-07 09:55:00,74.5,69.3,29.70,NE,51,1.0,5.0,84,0.00,,,0.00,186,Wunderground v.1.15,2013-09-07 14:55:00,
2013-09-07 10:00:00,74.6,69.4,29.71,NE,51,3.0,5.0,84,0.00,,,0.00,204,Wunderground v.1.15,2013-09-07 15:00:00,
2013-09-07 10:05:00,74.9,69.7,29.71,NE,51,2.0,5.0,84,0.00,,,0.00,230,Wunderground v.1.15,2013-09-07 15:05:00,
2013-09-07 10:10:00,75.2,69.7,29.71,NE,51,2.0,4.0,83,0.00,,,0.00,355,Wunderground v.1.15,2013-09-07 15:10:00,
2013-09-07 10:15:00,75.6,70.1,29.71,NE,51,4.0,5.0,83,0.00,,,0.00,193,Wunderground v.1.15,2013-09-07 15:15:00,
2013-09-07 10:20:00,75.7,69.8,29.71,NE,51,4.0,5.0,82,0.00,,,0.00,206,Wunderground v.1.15,2013-09-07 15:20:00,
2013-09-07 10:25:00,75.8,69.6,29.70,NE,35,6.0,8.0,81,0.00,,,0.00,202,Wunderground v.1.15,2013-09-07 15:25:00,
2013-09-07 10:30:00,75.8,69.6,29.71,NNW,345,4.0,7.0,81,0.00,,,0.00,230,Wunderground v.1.15,2013-09-07 15:30:00,
2013-09-07 10:35:00,75.9,69.6,29.71,North,360,5.0,9.0,81,0.00,,,0.00,257,Wunderground v.1.15,2013-09-07 15:35:00,
2013-09-07 10:40:00,76.1,69.8,29.71,NNE,30,5.0,7.0,81,0.00,,,0.00,272,Wunderground v.1.15,2013-09-07 15:40:00,
2013-09-07 10:45:00,76.1,69.5,29.71,NNE,27,4.0,9.0,80,0.00,,,0.00,283,Wunderground v.1.15,2013-09-07 15:45:00,
2013-09-07 10:50:00,76.3,69.7,29.71,NNE,30,3.0,5.0,80,0.00,,,0.00,345,Wunderground v.1.15,2013-09-07 15:50:00,
2013-09-07 10:55:00,76.5,69.9,29.71,NNE,30,3.0,8.0,80,0.00,,,0.00,323,Wunderground v.1.15,2013-09-07 15:55:00,
2013-09-07 11:00:00,76.9,70.3,29.71,NNE,27,4.0,6.0,80,0.00,,,0.00,752,Wunderground v.1.15,2013-09-07 16:00:00,
2013-09-07 11:05:00,77.7,70.7,29.72,NNE,28,4.0,9.0,79,0.00,,,0.00,766,Wunderground v.1.15,2013-09-07 16:05:00,
2013-09-07 11:10:00,78.4,70.6,29.72,NNE,23,2.0,6.0,77,0.00,,,0.00,842,Wunderground v.1.15,2013-09-07 16:10:00,
2013-09-07 11:15:00,78.4,70.2,29.72,North,5,1.0,9.0,76,0.00,,,0.00,330,Wunderground v.1.15,2013-09-07 16:15:00,
2013-09-07 11:20:00,78.2,70.0,29.72,North,5,2.0,5.0,76,0.00,,,0.00,383,Wunderground v.1.15,2013-09-07 16:20:00,
2013-09-07 11:25:00,78.3,70.1,29.72,NNE,26,6.0,8.0,76,0.00,,,0.00,454,Wunderground v.1.15,2013-09-07 16:25:00,
2013-09-07 11:30:00,78.7,70.5,29.72,NNE,19,7.0,8.0,76,0.00,,,0.00,696,Wunderground v.1.15,2013-09-07 16:30:00,
2013-09-07 11:35:00,79.5,71.3,29.73,NNE,12,8.0,12.0,76,0.00,,,0.00,886,Wunderground v.1.15,2013-09-07 16:35:00,
2013-09-07 11:40:00,79.7,70.7,29.73,North,5,11.0,11.0,74,0.00,,,0.00,350,Wunderground v.1.15,2013-09-07 16:40:00,
2013-09-07 11:45:00,79.2,69.8,29.73,North,5,5.0,11.0,73,0.00,,,0.00,327,Wunderground v.1.15,2013-09-07 16:45:00,
2013-09-07 11:50:00,79.0,70.4,29.74,NNE,12,5.0,6.0,75,0.00,,,0.00,306,Wunderground v.1.15,2013-09-07 16:50:00,
2013-09-07 11:55:00,79.0,70.8,29.75,NNW,346,3.0,8.0,76,0.00,,,0.00,283,Wunderground v.1.15,2013-09-07 16:55:00,
2013-09-07 12:00:00,79.1,70.5,29.74,NNW,346,3.0,3.0,75,0.00,,,0.00,264,Wunderground v.1.15,2013-09-07 17:00:00,
2013-09-07 12:05:00,79.2,70.6,29.74,NNE,15,9.0,9.0,75,0.00,,,0.00,294,Wunderground v.1.15,2013-09-07 17:05:00,
2013-09-07 12:10:00,78.9,69.9,29.75,NNE,14,4.0,7.0,74,0.00,,,0.00,327,Wunderground v.1.15,2013-09-07 17:10:00,
2013-09-07 12:15:00,78.7,70.1,29.74,NNE,16,5.0,10.0,75,0.00,,,0.00,367,Wunderground v.1.15,2013-09-07 17:15:00,
2013-09-07 12:20:00,78.7,70.5,29.74,North,5,6.0,8.0,76,0.00,,,0.00,373,Wunderground v.1.15,2013-09-07 17:20:00,
2013-09-07 12:25:00,78.8,70.2,29.74,NE,41,6.0,11.0,75,0.00,,,0.00,364,Wunderground v.1.15,2013-09-07 17:25:00,
2013-09-07 12:30:00,78.9,70.3,29.74,NE,37,5.0,5.0,75,0.00,,,0.00,338,Wunderground v.1.15,2013-09-07 17:30:00,
2013-09-07 12:35:00,78.9,70.3,29.74,NE,36,4.0,8.0,75,0.00,,,0.00,313,Wunderground v.1.15,2013-09-07 17:35:00,
2013-09-07 12:40:00,79.0,70.8,29.74,NE,36,6.0,6.0,76,0.00,,,0.00,309,Wunderground v.1.15,2013-09-07 17:40:00,
2013-09-07 12:45:00,79.1,70.9,29.73,NE,35,5.0,6.0,76,0.00,,,0.00,315,Wunderground v.1.15,2013-09-07 17:45:00,
2013-09-07 12:50:00,79.4,71.2,29.73,NNE,32,6.0,6.0,76,0.00,,,0.00,341,Wunderground v.1.15,2013-09-07 17:50:00,
2013-09-07 13:33:00,82.0,70.8,29.72,NE,53,5.0,6.0,69,0.00,,,0.00,946,Wunderground v.1.15,2013-09-07 18:33:00,
2013-09-07 13:38:00,82.3,71.5,29.72,NE,53,7.0,10.0,70,0.00,,,0.00,904,Wunderground v.1.15,2013-09-07 18:38:00,
2013-09-07 13:43:00,82.5,71.3,29.71,NE,40,5.0,6.0,69,0.00,,,0.00,918,Wunderground v.1.15,2013-09-07 18:43:00,
2013-09-07 13:48:00,82.4,72.0,29.71,ENE,70,5.0,10.0,71,0.00,,,0.00,406,Wunderground v.1.15,2013-09-07 18:48:00,
2013-09-07 13:53:00,82.4,72.5,29.71,East,88,7.0,8.0,72,0.00,,,0.00,654,Wunderground v.1.15,2013-09-07 18:53:00,
2013-09-07 13:58:00,82.3,71.5,29.71,NE,49,3.0,9.0,70,0.00,,,0.00,983,Wunderground v.1.15,2013-09-07 18:58:00,
2013-09-07 14:03:00,82.4,72.5,29.72,NE,49,2.0,6.0,72,0.00,,,0.00,237,Wunderground v.1.15,2013-09-07 19:03:00,
2013-09-07 14:08:00,82.7,71.9,29.72,NE,49,2.0,6.0,70,0.00,,,0.00,886,Wunderground v.1.15,2013-09-07 19:08:00,
2013-09-07 14:13:00,83.6,73.2,29.72,NE,46,7.0,7.0,71,0.00,,,0.00,840,Wunderground v.1.15,2013-09-07 19:13:00,
2013-09-07 14:18:00,84.5,71.9,29.72,NNE,15,4.0,8.0,66,0.00,,,0.00,833,Wunderground v.1.15,2013-09-07 19:18:00,
2013-09-07 14:23:00,84.8,72.2,29.72,North,11,4.0,8.0,66,0.00,,,0.00,849,Wunderground v.1.15,2013-09-07 19:23:00,
2013-09-07 14:28:00,84.9,72.7,29.71,NE,40,4.0,9.0,67,0.00,,,0.00,807,Wunderground v.1.15,2013-09-07 19:28:00,
2013-09-07 14:33:00,84.7,73.4,29.71,NE,37,6.0,11.0,69,0.00,,,0.00,798,Wunderground v.1.15,2013-09-07 19:33:00,
2013-09-07 14:38:00,85.0,74.1,29.71,NNE,23,5.0,11.0,70,0.00,,,0.00,773,Wunderground v.1.15,2013-09-07 19:38:00,
2013-09-07 14:43:00,85.1,72.9,29.71,North,5,8.0,15.0,67,0.00,,,0.00,784,Wunderground v.1.15,2013-09-07 19:43:00,
2013-09-07 14:48:00,85.1,73.8,29.71,NE,46,6.0,15.0,69,0.00,,,0.00,824,Wunderground v.1.15,2013-09-07 19:48:00,
2013-09-07 14:53:00,84.7,73.0,29.71,NE,44,9.0,10.0,68,0.00,,,0.00,302,Wunderground v.1.15,2013-09-07 19:53:00,
2013-09-07 14:58:00,84.3,73.0,29.71,NNE,21,10.0,10.0,69,0.00,,,0.00,362,Wunderground v.1.15,2013-09-07 19:58:00,
2013-09-07 15:03:00,84.0,72.3,29.71,NE,49,8.0,8.0,68,0.00,,,0.00,318,Wunderground v.1.15,2013-09-07 20:03:00,
2013-09-07 15:08:00,84.3,73.0,29.70,NE,35,8.0,12.0,69,0.00,,,0.00,803,Wunderground v.1.15,2013-09-07 20:08:00,
2013-09-07 15:13:00,84.3,72.6,29.70,ENE,66,5.0,8.0,68,0.00,,,0.00,334,Wunderground v.1.15,2013-09-07 20:13:00,
2013-09-07 15:18:00,84.6,73.3,29.70,NE,40,7.0,12.0,69,0.00,,,0.00,348,Wunderground v.1.15,2013-09-07 20:18:00,
2013-09-07 15:23:00,84.4,73.5,29.70,NNE,33,7.0,9.0,70,0.00,,,0.00,207,Wunderground v.1.15,2013-09-07 20:23:00,
2013-09-07 15:28:00,84.2,73.8,29.70,NE,40,5.0,9.0,71,0.00,,,0.00,311,Wunderground v.1.15,2013-09-07 20:28:00,
2013-09-07 15:33:00,84.7,74.3,29.69,ENE,59,9.0,10.0,71,0.00,,,0.00,854,Wunderground v.1.15,2013-09-07 20:33:00,
2013-09-07 15:38:00,85.1,73.8,29.69,NE,38,6.0,12.0,69,0.00,,,0.00,383,Wunderground v.1.15,2013-09-07 20:38:00,
2013-09-07 15:43:00,85.1,72.9,29.69,ENE,75,7.0,12.0,67,0.00,,,0.00,357,Wunderground v.1.15,2013-09-07 20:43:00,
2013-09-07 15:48:00,84.8,72.6,29.69,ENE,67,9.0,12.0,67,0.00,,,0.00,308,Wunderground v.1.15,2013-09-07 20:48:00,
2013-09-07 15:53:00,84.7,73.0,29.70,ENE,71,9.0,10.0,68,0.00,,,0.00,257,Wunderground v.1.15,2013-09-07 20:53:00,
2013-09-07 15:58:00,84.5,73.2,29.70,NE,55,3.0,10.0,69,0.00,,,0.00,197,Wunderground v.1.15,2013-09-07 20:58:00,
2013-09-07 16:03:00,84.5,73.6,29.70,ENE,58,7.0,9.0,70,0.00,,,0.00,211,Wunderground v.1.15,2013-09-07 21:03:00,
2013-09-07 16:08:00,84.8,73.9,29.70,ENE,66,7.0,9.0,70,0.00,,,0.00,596,Wunderground v.1.15,2013-09-07 21:08:00,
2013-09-07 16:13:00,85.2,73.4,29.70,ENE,61,3.0,9.0,68,0.00,,,0.00,664,Wunderground v.1.15,2013-09-07 21:13:00,
2013-09-07 16:18:00,85.8,74.0,29.70,ENE,59,8.0,10.0,68,0.00,,,0.00,729,Wunderground v.1.15,2013-09-07 21:18:00,
2013-09-07 16:23:00,86.0,72.4,29.70,NE,36,6.0,11.0,64,0.00,,,0.00,729,Wunderground v.1.15,2013-09-07 21:23:00,
2013-09-07 16:28:00,85.9,72.8,29.70,NE,35,8.0,11.0,65,0.00,,,0.00,218,Wunderground v.1.15,2013-09-07 21:28:00,
2013-09-07 16:33:00,85.4,72.7,29.69,ENE,57,9.0,11.0,66,0.00,,,0.00,264,Wunderground v.1.15,2013-09-07 21:33:00,
2013-09-07 16:38:00,85.0,73.3,29.69,NE,55,6.0,11.0,68,0.00,,,0.00,174,Wunderground v.1.15,2013-09-07 21:38:00,
2013-09-07 16:43:00,84.6,73.3,29.69,ENE,69,8.0,9.0,69,0.00,,,0.00,294,Wunderground v.1.15,2013-09-07 21:43:00,
2013-09-07 16:48:00,84.5,72.8,29.69,ENE,64,4.0,9.0,68,0.00,,,0.00,369,Wunderground v.1.15,2013-09-07 21:48:00,
2013-09-07 16:53:00,84.6,73.7,29.69,ENE,61,2.0,7.0,70,0.00,,,0.00,596,Wunderground v.1.15,2013-09-07 21:53:00,
2013-09-07 16:59:00,85.0,75.0,29.69,East,86,6.0,7.0,72,0.00,,,0.00,564,Wunderground v.1.15,2013-09-07 21:59:00,
2013-09-07 17:04:00,85.0,75.0,29.69,East,94,7.0,9.0,72,0.00,,,0.00,559,Wunderground v.1.15,2013-09-07 22:04:00,
2013-09-07 17:09:00,85.0,75.0,29.69,East,101,6.0,9.0,72,0.00,,,0.00,564,Wunderground v.1.15,2013-09-07 22:09:00,
2013-09-07 17:14:00,84.9,74.4,29.69,East,90,7.0,10.0,71,0.00,,,0.00,527,Wunderground v.1.15,2013-09-07 22:14:00,
2013-09-07 17:19:00,85.0,74.1,29.69,ENE,62,3.0,10.0,70,0.00,,,0.00,552,Wunderground v.1.15,2013-09-07 22:19:00,
2013-09-07 17:24:00,85.3,73.5,29.70,ENE,60,4.0,9.0,68,0.00,,,0.00,341,Wunderground v.1.15,2013-09-07 22:24:00,
2013-09-07 17:29:00,85.5,74.6,29.70,ENE,65,5.0,9.0,70,0.00,,,0.00,209,Wunderground v.1.15,2013-09-07 22:29:00,
2013-09-07 17:34:00,85.6,75.5,29.70,NE,40,6.0,7.0,72,0.00,,,0.00,302,Wunderground v.1.15,2013-09-07 22:34:00,
2013-09-07 17:39:00,85.6,75.5,29.70,NNE,33,9.0,10.0,72,0.00,,,0.00,223,Wunderground v.1.15,2013-09-07 22:39:00,
2013-09-07 17:44:00,85.4,75.8,29.69,NE,49,4.0,9.0,73,0.00,,,0.00,186,Wunderground v.1.15,2013-09-07 22:44:00,
2013-09-07 17:49:00,85.2,75.6,29.69,NE,42,6.0,9.0,73,0.00,,,0.00,156,Wunderground v.1.15,2013-09-07 22:49:00,
2013-09-07 17:54:00,84.6,75.0,29.69,NE,37,11.0,12.0,73,0.00,,,0.00,313,Wunderground v.1.15,2013-09-07 22:54:00,
2013-09-07 17:59:00,84.3,75.1,29.69,NE,44,6.0,12.0,74,0.00,,,0.00,213,Wunderground v.1.15,2013-09-07 22:59:00,
2013-09-07 18:04:00,84.1,74.5,29.69,NE,45,5.0,11.0,73,0.00,,,0.00,197,Wunderground v.1.15,2013-09-07 23:04:00,
2013-09-07 18:09:00,83.9,74.7,29.69,NE,51,4.0,11.0,74,0.00,,,0.00,95,Wunderground v.1.15,2013-09-07 23:09:00,
2013-09-07 18:14:00,83.5,74.3,29.68,ENE,70,5.0,10.0,74,0.00,,,0.00,97,Wunderground v.1.15,2013-09-07 23:14:00,
2013-09-07 18:19:00,83.0,74.3,29.68,NE,56,9.0,10.0,75,0.00,,,0.00,125,Wunderground v.1.15,2013-09-07 23:19:00,
2013-09-07 18:24:00,82.9,74.6,29.70,NE,45,3.0,8.0,76,0.00,,,0.00,111,Wunderground v.1.15,2013-09-07 23:24:00,
2013-09-07 18:29:00,82.7,74.8,29.70,NE,42,3.0,8.0,77,0.00,,,0.00,149,Wunderground v.1.15,2013-09-07 23:29:00,
2013-09-07 18:34:00,82.5,74.6,29.70,NE,34,6.0,7.0,77,0.00,,,0.00,155,Wunderground v.1.15,2013-09-07 23:34:00,
2013-09-07 18:39:00,82.5,74.6,29.70,NNE,32,5.0,9.0,77,0.00,,,0.00,135,Wunderground v.1.15,2013-09-07 23:39:00,
2013-09-07 18:44:00,82.4,74.5,29.70,NE,37,7.0,9.0,77,0.00,,,0.00,100,Wunderground v.1.15,2013-09-07 23:44:00,
2013-09-07 18:49:00,82.1,74.2,29.70,NE,38,5.0,9.0,77,0.00,,,0.00,91,Wunderground v.1.15,2013-09-07 23:49:00,
2013-09-07 18:54:00,81.9,74.4,29.70,NE,38,6.0,7.0,78,0.00,,,0.00,83,Wunderground v.1.15,2013-09-07 23:54:00,
2013-09-07 18:59:00,81.5,74.4,29.71,NNE,32,8.0,10.0,79,0.00,,,0.00,81,Wunderground v.1.15,2013-09-07 23:59:00,
2013-09-07 19:04:00,80.9,73.8,29.70,NNE,28,8.0,10.0,79,0.00,,,0.00,76,Wunderground v.1.15,2013-09-08 00:04:00,
2013-09-07 19:09:00,80.5,73.8,29.70,NNE,18,8.0,10.0,80,0.00,,,0.00,69,Wunderground v.1.15,2013-09-08 00:09:00,
2013-09-07 19:14:00,80.2,73.5,29.70,NNE,20,3.0,8.0,80,0.00,,,0.00,56,Wunderground v.1.15,2013-09-08 00:14:00,
2013-09-07 19:19:00,79.8,73.4,29.71,NNE,28,4.0,8.0,81,0.00,,,0.00,47,Wunderground v.1.15,2013-09-08 00:19:00,
2013-09-07 19:24:00,79.6,73.3,29.71,NNE,28,2.0,7.0,81,0.00,,,0.00,40,Wunderground v.1.15,2013-09-08 00:24:00,
2013-09-07 19:29:00,79.3,73.0,29.71,NNE,28,4.0,7.0,81,0.00,,,0.00,35,Wunderground v.1.15,2013-09-08 00:29:00,
2013-09-07 19:34:00,79.0,72.7,29.71,NNE,28,3.0,6.0,81,0.00,,,0.00,28,Wunderground v.1.15,2013-09-08 00:34:00,
2013-09-07 19:40:00,78.8,72.5,29.71,NNE,29,7.0,7.0,81,0.00,,,0.00,21,Wunderground v.1.15,2013-09-08 00:40:00,
2013-09-07 19:44:00,78.5,72.2,29.71,NNE,29,3.0,6.0,81,0.00,,,0.00,16,Wunderground v.1.15,2013-09-08 00:44:00,
2013-09-07 19:49:00,78.2,71.9,29.71,NNE,29,3.0,6.0,81,0.00,,,0.00,11,Wunderground v.1.15,2013-09-08 00:49:00,
2013-09-07 19:54:00,78.0,71.7,29.71,NNE,29,2.0,5.0,81,0.00,,,0.00,7,Wunderground v.1.15,2013-09-08 00:54:00,
2013-09-07 19:59:00,77.7,71.8,29.71,NNE,29,2.0,5.0,82,0.00,,,0.00,0,Wunderground v.1.15,2013-09-08 00:59:00,
2013-09-07 20:04:00,77.5,71.6,29.71,NNE,29,2.0,5.0,82,0.00,,,0.00,0,Wunderground v.1.15,2013-09-08 01:04:00,
2013-09-07 20:09:00,77.2,71.6,29.71,NNE,29,3.0,6.0,83,0.00,,,0.00,0,Wunderground v.1.15,2013-09-08 01:09:00,
2013-09-07 20:14:00,76.9,71.3,29.71,NNE,29,0.0,4.0,83,0.00,,,0.00,0,Wunderground v.1.15,2013-09-08 01:14:00,
2013-09-07 20:19:00,76.7,71.1,29.71,NNE,29,2.0,4.0,83,0.00,,,0.00,0,Wunderground v.1.15,2013-09-08 01:19:00,
2013-09-07 20:24:00,76.4,71.2,29.71,NNE,29,2.0,5.0,84,0.00,,,0.00,0,Wunderground v.1.15,2013-09-08 01:24:00,
2013-09-07 20:29:00,76.2,71.0,29.72,NNE,28,1.0,5.0,84,0.00,,,0.00,0,Wunderground v.1.15,2013-09-08 01:29:00,
2013-09-07 20:34:00,76.0,70.8,29.72,NNE,28,2.0,4.0,84,0.00,,,0.00,0,Wunderground v.1.15,2013-09-08 01:34:00,
2013-09-07 20:39:00,75.8,71.0,29.72,NNE,29,3.0,4.0,85,0.00,,,0.00,0,Wunderground v.1.15,2013-09-08 01:39:00,
2013-09-07 20:44:00,75.6,70.8,29.72,NNE,28,3.0,5.0,85,0.00,,,0.00,0,Wunderground v.1.15,2013-09-08 01:44:00,
2013-09-07 20:49:00,75.4,70.6,29.72,NNE,28,3.0,7.0,85,0.00,,,0.00,0,Wunderground v.1.15,2013-09-08 01:49:00,
2013-09-07 20:54:00,75.1,70.3,29.72,NNE,29,4.0,6.0,85,0.00,,,0.00,0,Wunderground v.1.15,2013-09-08 01:54:00,
2013-09-07 20:59:00,75.0,70.5,29.71,NNE,28,5.0,6.0,86,0.00,,,0.00,0,Wunderground v.1.15,2013-09-08 01:59:00,
2013-09-07 21:04:00,74.9,70.4,29.72,NNE,28,4.0,6.0,86,0.00,,,0.00,0,Wunderground v.1.15,2013-09-08 02:04:00,
2013-09-07 21:09:00,75.0,70.9,29.72,NNE,29,5.0,7.0,87,0.00,,,0.00,0,Wunderground v.1.15,2013-09-08 02:09:00,
2013-09-07 21:14:00,75.1,71.0,29.72,NNE,30,5.0,8.0,87,0.00,,,0.00,0,Wunderground v.1.15,2013-09-08 02:14:00,
2013-09-07 21:19:00,75.3,71.2,29.72,NNE,31,4.0,8.0,87,0.00,,,0.00,0,Wunderground v.1.15,2013-09-08 02:19:00,
2013-09-07 21:24:00,75.3,71.2,29.72,NE,42,7.0,10.0,87,0.00,,,0.00,0,Wunderground v.1.15,2013-09-08 02:24:00,
2013-09-07 21:29:00,75.3,71.2,29.72,ENE,57,5.0,10.0,87,0.00,,,0.00,0,Wunderground v.1.15,2013-09-08 02:29:00,
2013-09-07 21:34:00,75.3,71.2,29.72,NE,42,5.0,9.0,87,0.00,,,0.00,0,Wunderground v.1.15,2013-09-08 02:34:00,
2013-09-07 21:39:00,75.2,71.1,29.72,NE,48,5.0,9.0,87,0.00,,,0.00,0,Wunderground v.1.15,2013-09-08 02:39:00,
2013-09-07 21:44:00,75.1,71.0,29.72,NE,45,6.0,9.0,87,0.00,,,0.00,0,Wunderground v.1.15,2013-09-08 02:44:00,
2013-09-07 21:49:00,75.1,71.3,29.72,NE,46,6.0,9.0,88,0.00,,,0.00,0,Wunderground v.1.15,2013-09-08 02:49:00,
2013-09-07 21:54:00,74.9,71.1,29.72,NE,46,4.0,9.0,88,0.00,,,0.00,0,Wunderground v.1.15,2013-09-08 02:54:00,
2013-09-07 21:59:00,74.8,71.0,29.72,NE,44,4.0,9.0,88,0.00,,,0.00,0,Wunderground v.1.15,2013-09-08 02:59:00,
2013-09-07 22:04:00,74.6,70.8,29.72,NE,52,5.0,9.0,88,0.00,,,0.00,0,Wunderground v.1.15,2013-09-08 03:04:00,
2013-09-07 22:09:00,74.6,70.8,29.72,ENE,61,7.0,9.0,88,0.00,,,0.00,0,Wunderground v.1.15,2013-09-08 03:09:00,
2013-09-07 22:14:00,74.4,70.6,29.72,ENE,60,5.0,9.0,88,0.00,,,0.00,0,Wunderground v.1.15,2013-09-08 03:14:00,
2013-09-07 22:19:00,74.3,70.5,29.72,ENE,57,4.0,9.0,88,0.00,,,0.00,0,Wunderground v.1.15,2013-09-08 03:19:00,
2013-09-07 22:24:00,74.2,70.4,29.72,ENE,57,5.0,9.0,88,0.00,,,0.00,0,Wunderground v.1.15,2013-09-08 03:24:00,
2013-09-07 22:30:00,74.1,70.3,29.72,ENE,63,5.0,10.0,88,0.00,,,0.00,0,Wunderground v.1.15,2013-09-08 03:30:00,
2013-09-07 22:35:00,74.1,70.3,29.73,ENE,65,7.0,9.0,88,0.00,,,0.00,0,Wunderground v.1.15,2013-09-08 03:35:00,
2013-09-07 22:40:00,74.0,70.2,29.73,ENE,68,5.0,10.0,88,0.00,,,0.00,0,Wunderground v.1.15,2013-09-08 03:40:00,
2013-09-07 22:45:00,74.0,70.2,29.73,ENE,68,11.0,11.0,88,0.00,,,0.00,0,Wunderground v.1.15,2013-09-08 03:45:00,
2013-09-07 22:50:00,73.9,70.1,29.73,ENE,61,8.0,13.0,88,0.00,,,0.00,0,Wunderground v.1.15,2013-09-08 03:50:00,
2013-09-07 22:55:00,73.8,70.0,29.73,ENE,66,5.0,10.0,88,0.00,,,0.00,0,Wunderground v.1.15,2013-09-08 03:55:00,
2013-09-07 22:59:00,73.7,69.9,29.73,ENE,62,7.0,10.0,88,0.00,,,0.00,0,Wunderground v.1.15,2013-09-08 03:59:00,
2013-09-07 23:01:00,73.7,69.9,29.73,ENE,62,7.0,8.0,88,0.00,,,0.00,0,Wunderground v.1.15,2013-09-08 04:01:00,
2013-09-07 23:06:00,73.7,69.9,29.73,ENE,65,7.0,9.0,88,0.00,,,0.00,0,Wunderground v.1.15,2013-09-08 04:06:00,
2013-09-07 23:11:00,73.6,69.8,29.73,ENE,65,5.0,5.0,88,0.00,,,0.00,0,Wunderground v.1.15,2013-09-08 04:11:00,
2013-09-07 23:16:00,73.5,69.7,29.73,ENE,67,4.0,10.0,88,0.00,,,0.00,0,Wunderground v.1.15,2013-09-08 04:16:00,
2013-09-07 23:21:00,73.4,70.0,29.73,ENE,67,3.0,8.0,89,0.00,,,0.00,0,Wunderground v.1.15,2013-09-08 04:21:00,
2013-09-07 23:26:00,73.4,70.0,29.73,ENE,67,5.0,8.0,89,0.00,,,0.00,0,Wunderground v.1.15,2013-09-08 04:26:00,
2013-09-07 23:31:00,73.4,70.0,29.73,ENE,67,7.0,9.0,89,0.00,,,0.00,0,Wunderground v.1.15,2013-09-08 04:31:00,
2013-09-07 23:36:00,73.3,69.9,29.73,ENE,67,5.0,10.0,89,0.00,,,0.00,0,Wunderground v.1.15,2013-09-08 04:36:00,
2013-09-07 23:41:00,73.2,69.8,29.73,ENE,66,4.0,8.0,89,0.00,,,0.00,0,Wunderground v.1.15,2013-09-08 04:41:00,
2013-09-07 23:46:00,73.2,69.8,29.73,ENE,67,10.0,10.0,89,0.00,,,0.00,0,Wunderground v.1.15,2013-09-08 04:46:00,
2013-09-07 23:51:00,73.2,69.8,29.73,ENE,65,4.0,8.0,89,0.00,,,0.00,0,Wunderground v.1.15,2013-09-08 04:51:00,
2013-09-07 23:56:00,73.1,69.7,29.72,ENE,65,8.0,10.0,89,0.00,,,0.00,0,Wunderground v.1.15,2013-09-08 04:56:00,